Curtin, Australia

8:05 PM AWST on March 25, 2017 (GMT +0800)
Curtin

Weather History for YCIN - October, 2012

Change the Weather History Date:

Monday, October 15, 2012

  Actual Average Record
Temperature  
Mean Temperature 84 °F -  
Max Temperature 104 °F - - ()
Min Temperature 64 °F - - ()
Cooling Degree Days 19    
Growing Degree Days 34 (Base 50)    
Moisture  
Dew Point 60 °F    
Average Humidity 53    
Maximum Humidity 94    
Minimum Humidity 7    
Precipitation  
Precipitation 0.00 in - - ()
Sea Level Pressure  
Sea Level Pressure 29.93 in    
Wind  
Wind Speed 4 mph ()    
Max Wind Speed 10 mph    
Max Gust Speed -    
T = Trace of Precipitation, MM = Missing Value Source: Averaged Metar Reports

Daily Weather History Graph

Daily Weather History Graph

Search for Another Location

Airport or City:

Trip Planner

Search our weather history database for the weather conditions in past years. The results will help you decide how hot, cold, wet, or windy it might be!

Date:

Astronomy

Oct. 15, 2012 Rise Set
Actual Time 5:16 AM AWST 5:45 PM AWST
Civil Twilight 4:54 AM AWST 6:07 PM AWST
Nautical Twilight 4:28 AM AWST 6:32 PM AWST
Astronomical Twilight 4:02 AM AWST 6:58 PM AWST
Moon 4:41 AM AWST (10/15) 5:33 PM AWST (10/15)
Length of Visible Light 13h 13m
Length of Day
12h 29m
Waning Crescent, 0% of the Moon is Illuminated
Oct 15
Waning Crescent
Oct 15
New
Oct 22
First Quarter
Oct 30
Full
Nov 7
Last Quarter

Hourly Weather History & Observations

Time (AWST) Temp. Heat Index Dew Point Humidity Pressure Visibility Wind Dir Wind Speed Gust Speed Precip Events Conditions
12:00 AM 74 °F - 63 °F 61% 29.93 in - SW 4.6 mph - -  
12:00 AM 75.2 °F - 62.6 °F 65% 29.92 in - SW 4.6 mph - N/A   Unknown
1:00 AM 69.8 °F - 60.8 °F 73% 29.92 in - Calm Calm - N/A   Unknown
2:00 AM 66.2 °F - 60.8 °F 83% 29.92 in - Calm Calm - N/A   Unknown
3:00 AM 66 °F - 61 °F 79% 29.91 in - North 3.5 mph - -  
3:00 AM 66.2 °F - 60.8 °F 83% 29.92 in - North 3.5 mph - N/A   Unknown
4:00 AM 64.4 °F - 60.8 °F 88% 29.92 in - Calm Calm - N/A   Unknown
5:00 AM 66.2 °F - 64.4 °F 94% 29.95 in - ESE 4.6 mph - N/A   Unknown
6:00 AM 67 °F - 64 °F 88% 29.96 in - Calm Calm - -  
6:00 AM 66.2 °F - 64.4 °F 94% 29.98 in - Calm Calm - N/A   Unknown
7:00 AM 75.2 °F - 71.6 °F 89% 30.01 in - WNW 1.2 mph - N/A   Unknown
8:00 AM 84.2 °F 87.3 °F 68.0 °F 58% 30.01 in - NW 3.5 mph - N/A   Unknown
9:00 AM 88 °F - 63 °F 33% 29.99 in - NW 4.6 mph - -  
9:00 AM 87.8 °F 88.5 °F 62.6 °F 43% 30.01 in - NW 4.6 mph - N/A   Unknown
10:00 AM 93.2 °F 94.1 °F 62.6 °F 36% 29.98 in - WNW 3.5 mph - N/A   Unknown
11:00 AM 95.0 °F 94.4 °F 59.0 °F 30% 29.95 in - West 5.8 mph - N/A   Unknown
12:00 PM 97 °F - 54 °F 15% 29.91 in - West 6.9 mph - -  
12:00 PM 96.8 °F 95.1 °F 55.4 °F 25% 29.92 in - West 6.9 mph - N/A   Unknown
1:00 PM 100.4 °F 98.4 °F 53.6 °F 21% 29.89 in - WNW 9.2 mph - N/A   Unknown
2:00 PM 100.4 °F - 48.2 °F 17% 29.86 in - NNW 6.9 mph - N/A   Unknown
3:00 PM 101 °F - 43 °F 7% 29.85 in - NNW 9.2 mph - -  
3:00 PM 100.4 °F - 42.8 °F 14% 29.86 in - NNW 9.2 mph - N/A   Unknown
4:00 PM 98.6 °F - 46.4 °F 17% 29.86 in - NW 10.4 mph - N/A   Unknown
5:00 PM 95.0 °F - 50.0 °F 22% 29.86 in - North 9.2 mph - N/A   Unknown
6:00 PM 88 °F - 64 °F 35% 29.87 in - NNW 8.1 mph - -  
6:00 PM 87.8 °F 89.4 °F 64.4 °F 46% 29.89 in - NNW 8.1 mph - N/A   Unknown
7:00 PM 84.2 °F 86.6 °F 66.2 °F 55% 29.89 in - NNW 8.1 mph - N/A   Unknown
8:00 PM 82.4 °F 85.4 °F 68.0 °F 62% 29.92 in - NNW 4.6 mph - N/A   Unknown
9:00 PM 80 °F - 67 °F 57% 29.93 in - NW 4.6 mph - -  
9:00 PM 80.6 °F 83.2 °F 68.0 °F 65% 29.95 in - NW 4.6 mph - N/A   Unknown
10:00 PM 75.2 °F - 62.6 °F 65% 29.95 in - NW 4.6 mph - N/A   Unknown
11:00 PM 77.0 °F - 64.4 °F 65% 29.95 in - West 4.6 mph - N/A   Unknown